Location: Auckland
(36.8670°S, 174.7670°E)
Time: 09:02:48
(UTC+13:00)

H-2A R/B - Pass Details

Date: 24 January 2019
Orbit: 258 x 32962 km, 27.9° (Epoch: 20 February)

Event Time Altitude Azimuth Distance (km) Brightness Sun altitude
Rises 22:05:15 0° 311° (NW) 2,279 4.6 -15.6°
Reaches altitude 10° 22:06:39 10° 325° (NW) 1,749 3.8 -15.8°
Maximum altitude 22:09:51 31° 31° (NNE) 1,620 3.1 -16.3°
Drops below altitude 10° 22:21:09 10° 86° (E) 6,362 6.2 -18.0°
Sets 22:34:46 0° 92° (E) 11,532 7.6 -19.9°
